Location: Johnson City
(36.3130°N, 82.3540°W)
Time: 03:05:20
(UTC-04:00)

ISS - Visible Passes

Search period start: 21 October 2018 00:00
Search period end: 31 October 2018 00:00
Orbit: 403 x 408 km, 51.6° (Epoch: 21 October)

Date Brightness Start Highest point End Pass type
(mag) Time Alt. Az. Time Alt. Az. Time Alt. Az.
25 Oct -1.0 06:30:28 10° S 06:32:46 18° SE 06:35:05 10° E visible
26 Oct -3.9 07:13:44 10° SW 07:16:59 75° NW 07:20:16 10° NE visible
27 Oct -3.0 06:23:11 22° SSW 06:25:00 49° SE 06:28:11 10° ENE visible
28 Oct -1.1 05:34:09 20° E 05:34:09 20° E 05:35:46 10° ENE visible
28 Oct -2.8 07:06:53 12° W 07:09:28 29° NW 07:12:24 10° NNE visible
29 Oct -3.6 06:17:37 53° NNW 06:17:37 53° NNW 06:20:34 10° NE visible
30 Oct -0.6 05:28:10 13° NE 05:28:10 13° NE 05:28:32 10° NE visible
30 Oct -1.8 07:00:52 13° NW 07:02:04 16° NNW 07:04:09 10° NNE visible
